Showing default

CAT 3, 12546

Orbit data source: Space-Track

CAT 3, 12546 is a payload satellite owned by ESA (ESA) in HEO that was launched on Fri, 19 Jun 1981 UTC via an ARIANE 1 launch vehicle from the French Guiana (FRGUI). Payload-class satellites include a variety of spacecraft equipped with specific instruments for various scientific and technological missions. These include communications satellites like Starlink; space stations such as the ISS; scientific satellites like the Hubble; Earth observation satellites from companies like Planet Labs, Umbra, and HawkEye 360; GPS; miniature CubeSats for education and research; and military/defense satellites.

Loading next visibility...
Identifier
12546, 1981-057C
Orbit
HEO
Country
Flag of ESAESA
Related business
Manufacturer
AERIT/CNEST
Mission
Non-operational spacecraft
Bus & Motor
CAT, Unknown motor
Mass
266 kg wet, 266 kg dry
Launch date (UTC)
1981-06-19 (44 years ago)
Launch vehicle
ARIANE 1
Launch site
French Guiana (FRGUI)
Object type
Payload
Rocket body
Debris
Shape & HBR
Unknown
Radar Cross Section
Large (>1 m²)

Expand to show TLE details & history
Last TLE update: 20 hours ago

TLE from 20 hours ago
0 CAT 3
1 12546U 81057C   25307.68646781  .00002643  00000-0  58496-3 0  9992
2 12546  10.2240  40.8123 5696967  54.5112 346.1451  4.49023191404907
Epoch: 2025-11-03T16:28Z
TLE epoch observation values (Epoch: 2025-11-03T16:28:30.818Z)
Latitude
-0.00003°
Longitude
110.44491°
Altitude
1,501.158 km
Speed
8.688 km/s
True Right ascension
02h 43m 01s
True Declination
0° 00' 00"
Sunlit
Object was in full shadow at epoch
Visualization orbit readout
Latitude
Unknown
Longitude
Unknown
Altitude
Unknown
Speed
Unknown
Apparent Right ascension
Unknown
Apparent Declination
Unknown
Sunlit
N/A
Visualization observer readout
Local Sidereal Time
08:02:02
Azimuth
Unknown
Elevation
Unknown
Doppler factor
Unknown
Orbital elements
Apogee altitude
17,991.083 km
Perigee altitude
302.234 km
Semi-major axis
15,524.796 km
Eccentricity
0.5697
Inclination
10.224°
RAAN
40.8123°
Arg. of periapsis
54.5112°
True anomaly
305.23612°
Mean anomaly
346.1451°
Eccentric anomaly
329.65416°
Mean motion
1.12203 °/min
Orbital period
320.85 mins
BSTAR
0.00058496
Loading maneuver chart data...
Computing Atmospheric mass density...
Loading historical data...
Loading historical data...
Loading historical data...
Loading historical data...
Loading historical data...
Loading historical data...
Loading historical data...

Documentation

Showing up to 5 results
|